This demonstration page uses our WeatherBlox Daily Observations layout. Learn more.

Left ArrowRight Arrow

Hourly Observations for June 12, 2019

Temp ( °F °C ) Dew Point ( °F °C ) Humidity (%) Winds ( mph kmh ) Pressure ( in mb ) Visibility ( mi km ) Precip ( " mm )
12:01 am 00:01 Mostly Cloudy 59 15 55 13 88 88 Calm 29.96 1014 10 16 0.00 0.00
12:56 am 00:56 Mostly Clear 59 15 55 13 88 88 WNW 3 6 29.94 1014 10 16 0.00 0.00
1:56 am 01:56 Clear 57 14 54 12 88 88 WNW 6 9 29.93 1014 10 16 0.00 0.00
2:56 am 02:56 Partly Cloudy 57 14 54 12 88 88 W 3 6 29.94 1014 10 16 0.00 0.00
3:56 am 03:56 Clear 55 13 54 12 94 94 NW 7 11 29.94 1014 10 16 0.00 0.00
4:56 am 04:56 Partly Cloudy 55 13 54 12 94 94 NW 8 13 29.95 1014 10 16 0.00 0.00
5:56 am 05:56 Partly Cloudy 55 13 52 11 88 88 WNW 8 13 29.96 1015 10 16 0.00 0.00
6:56 am 06:56 Mostly Sunny 57 14 52 11 82 82 WNW 7 11 29.98 1015 10 16 0.00 0.00
7:56 am 07:56 Mostly Sunny 61 16 54 12 77 77 NNW 10 17 30.00 1016 7 11 0.00 0.00
8:56 am 08:56 Mostly Cloudy 64 18 54 12 68 68 N 10 17 30.01 1016 7 11 0.00 0.00
9:56 am 09:56 Mostly Cloudy 68 20 55 13 64 64 NNW 15 24 30.01 1016 7 11 0.00 0.00
10:11 am 10:11 Partly Cloudy 68 20 55 13 64 64 N 10 17 30.01 1016 7 11 0.00 0.00
10:56 am 10:56 Partly Cloudy 70 21 54 12 57 57 NNW 12 19 30.00 1016 7 11 0.00 0.00
11:56 am 11:56 Mostly Cloudy 72 22 54 12 53 53 N 14 22 30.01 1016 7 11 0.00 0.00
12:56 pm 12:56 Mostly Cloudy 73 23 48 9 41 41 N 18 30 30.01 1016 7 11 0.00 0.00
1:45 pm 13:45 Mostly Cloudy 73 23 46 8 38 38 N 17 28 30.00 1016 7 11 0.00 0.00
1:56 pm 13:56 Mostly Cloudy 73 23 46 8 38 38 NNW 18 30 30.00 1016 7 11 0.00 0.00
2:56 pm 14:56 Mostly Cloudy 73 23 37 3 27 27 N 18 30 30.00 1016 7 11 0.00 0.00
3:56 pm 15:56 Sunny 73 23 30 -1 20 20 N 20 31 30.00 1016 10 16 0.00 0.00
4:56 pm 16:56 Sunny 73 23 34 1 23 23 N 16 26 30.00 1016 10 16 0.00 0.00
5:56 pm 17:56 Sunny 73 23 36 2 25 25 NNE 14 22 30.01 1016 10 16 0.00 0.00
6:56 pm 18:56 Mostly Sunny 73 23 37 3 27 27 N 16 26 30.01 1016 10 16 0.00 0.00
7:56 pm 19:56 Sunny 70 21 37 3 31 31 NNW 12 19 30.01 1016 10 16 0.00 0.00
8:56 pm 20:56 Sunny 68 20 36 2 30 30 NNW 9 15 30.02 1017 10 16 0.00 0.00
9:56 pm 21:56 Clear 64 18 39 4 40 40 NNW 6 9 30.03 1017 10 16 0.00 0.00
10:56 pm 22:56 Mostly Clear 63 17 41 5 45 45 NW 5 7 30.04 1017 10 16 0.00 0.00
11:56 pm 23:56 undefined N/A N/A N/A WNW 6 9 N/A N/A 0.00 0.00

Powered by AerisWeather